Humidity-temperature Sensor

Selected Measurement Type: Air Temperature

 
Air Temperature [°C]     6 entries per hour
Showing data from 9/19/2018 (00:00:00 Z) to 9/12/2018 (00:01:00 Z)
Previous Next [ Day | 3-Days | 7-Days ]
First Last
Prev [ Day | 3-Days | 7-Days ] Next
First Last

Start Time:     :
End Time:     :     
Time (in GMT) :00 :50 :40 :30 :20 :10
Previous Next [ Day | 3-Days | 7-Days ]
First Last
Prev [ Day | 3-Days | 7-Days ] Next
First Last


123 => good data
MM => data is determined as missing
-- => data not received/configured
Back to Top Back to Top
9/19/2018 00:00 to 23:10 24.95 25.13 25.08 25.04 25.03 25.16
9/18/2018 23:00 to 22:10 25.16 25.28 25.23 25.14 25.20 25.15
9/18/2018 22:00 to 21:10 25.13 25.14 25.11 25.11 25.09 25.26
9/18/2018 21:00 to 20:10 25.09 25.07 25.14 25.17 25.26 25.19
9/18/2018 20:00 to 19:10 25.12 25.29 25.33 25.28 25.16 25.39
9/18/2018 19:00 to 18:10 25.22 25.14 25.10 25.25 25.23 25.29
9/18/2018 18:00 to 17:10 25.03 25.21 25.30 25.30 25.33 25.25
9/18/2018 17:00 to 16:10 25.29 25.02 24.92 24.96 25.05 24.92
9/18/2018 16:00 to 15:10 25.09 24.92 24.86 25.03 25.20 24.97
9/18/2018 15:00 to 14:10 25.10 24.94 24.92 24.71 24.59 24.54
9/18/2018 14:00 to 13:10 24.67 24.53 24.63 24.53 24.59 24.59
9/18/2018 13:00 to 12:10 24.29 24.13 24.00 24.58 24.49 24.51
9/18/2018 12:00 to 11:10 24.71 24.68 24.78 24.69 24.60 24.67
9/18/2018 11:00 to 10:10 24.64 24.71 24.60 24.52 24.46 24.51
9/18/2018 10:00 to 9:10 24.25 23.89 24.53 24.61 24.58 24.54
9/18/2018 09:00 to 8:10 24.63 24.66 24.69 24.75 24.58 24.75
9/18/2018 08:00 to 7:10 24.85 24.69 24.85 24.79 24.80 24.93
9/18/2018 07:00 to 6:10 24.76 24.76 24.88 24.89 24.90 24.94
9/18/2018 06:00 to 5:10 24.97 24.83 24.46 25.00 24.69 24.83
9/18/2018 05:00 to 4:10 25.00 25.01 24.96 24.96 24.85 24.89
9/18/2018 04:00 to 3:10 25.05 25.01 24.96 24.93 24.93 24.86
9/18/2018 03:00 to 2:10 24.86 24.93 24.88 24.96 24.86 24.73
9/18/2018 02:00 to 1:10 24.89 24.97 25.02 24.98 25.11 25.06
9/18/2018 01:00 to 0:10 25.02 24.88 24.90 24.97 25.00 24.94
9/18/2018 00:00 to 23:10 24.97 25.05 24.89 24.79 25.03 24.93
9/17/2018 23:00 to 22:10 24.88 24.88 25.10 24.90 24.81 24.59
9/17/2018 22:00 to 21:10 24.92 25.03 24.94 25.02 25.00 24.66
9/17/2018 21:00 to 20:10 24.99 24.95 24.97 24.92 24.95 24.67
9/17/2018 20:00 to 19:10 24.41 24.92 24.95 24.82 24.98 25.00
9/17/2018 19:00 to 18:10 24.93 24.93 24.88 24.94 25.08 25.06
9/17/2018 18:00 to 17:10 25.02 25.08 24.94 24.97 24.99 25.04
9/17/2018 17:00 to 16:10 25.09 25.00 24.85 25.18 24.85 24.81
9/17/2018 16:00 to 15:10 24.84 24.93 24.85 24.97 24.86 24.86
9/17/2018 15:00 to 14:10 24.60 24.33 24.49 24.64 24.48 24.58
9/17/2018 14:00 to 13:10 24.51 24.54 24.53 24.57 24.51 24.40
9/17/2018 13:00 to 12:10 24.45 24.53 24.43 24.52 24.46 24.50
9/17/2018 12:00 to 11:10 24.42 23.99 24.49 24.40 24.44 23.53
9/17/2018 11:00 to 10:10 24.46 24.57 24.35 24.61 24.58 24.60
9/17/2018 10:00 to 9:10 24.60 24.57 24.56 24.53 24.53 23.99
9/17/2018 09:00 to 8:10 24.64 24.75 24.71 24.58 24.66 24.83
9/17/2018 08:00 to 7:10 24.68 24.76 24.78 25.01 24.59 24.60
9/17/2018 07:00 to 6:10 24.72 24.81 24.71 24.75 24.72 24.75
9/17/2018 06:00 to 5:10 24.78 24.87 24.80 24.89 24.72 24.77
9/17/2018 05:00 to 4:10 24.34 24.81 24.99 24.92 24.86 24.91
9/17/2018 04:00 to 3:10 24.86 24.97 24.77 24.86 24.44 24.92
9/17/2018 03:00 to 2:10 24.73 24.54 24.65 24.91 24.86 24.92
9/17/2018 02:00 to 1:10 24.90 25.05 25.06 24.89 25.06 25.02
9/17/2018 01:00 to 0:10 25.03 24.89 24.95 25.10 24.91 24.72
9/17/2018 00:00 to 23:10 24.98 24.96 24.91 25.07 24.91 24.99
9/16/2018 23:00 to 22:10 24.80 25.01 24.99 24.88 24.67 24.77
9/16/2018 22:00 to 21:10 24.80 24.80 24.83 24.83 24.85 25.04
9/16/2018 21:00 to 20:10 24.80 24.59 24.60 24.93 24.67 24.67
9/16/2018 20:00 to 19:10 24.86 24.81 24.80 24.74 24.38 24.81
9/16/2018 19:00 to 18:10 24.85 24.99 24.88 24.90 24.84 24.93
9/16/2018 18:00 to 17:10 24.96 24.95 24.99 25.02 24.88 25.14
9/16/2018 17:00 to 16:10 24.94 24.98 24.93 25.12 25.09 25.02
9/16/2018 16:00 to 15:10 25.09 25.16 24.93 24.82 24.85 24.84
9/16/2018 15:00 to 14:10 24.64 24.73 24.78 24.76 24.73 24.69
9/16/2018 14:00 to 13:10 24.70 24.77 24.69 24.68 24.68 24.60
9/16/2018 13:00 to 12:10 24.59 24.56 24.61 24.69 24.48 24.57
9/16/2018 12:00 to 11:10 24.65 24.59 24.62 24.62 24.68 24.46
9/16/2018 11:00 to 10:10 24.59 24.61 24.69 24.63 24.73 24.68
9/16/2018 10:00 to 9:10 24.60 24.64 24.69 24.68 24.90 24.88
9/16/2018 09:00 to 8:10 24.87 24.85 24.77 24.71 24.81 24.82
9/16/2018 08:00 to 7:10 24.96 24.81 25.00 24.84 24.91 24.93
9/16/2018 07:00 to 6:10 24.98 24.91 24.85 25.04 24.89 24.93
9/16/2018 06:00 to 5:10 24.90 24.69 24.83 24.79 24.80 24.92
9/16/2018 05:00 to 4:10 24.83 24.91 24.74 25.02 25.06 25.01
9/16/2018 04:00 to 3:10 25.00 24.51 24.98 25.10 24.81 24.94
9/16/2018 03:00 to 2:10 24.90 24.94 24.91 24.79 24.86 24.85
9/16/2018 02:00 to 1:10 24.89 24.77 24.66 24.70 24.83 24.67
9/16/2018 01:00 to 0:10 24.88 24.83 24.79 24.75 24.80 24.61
9/16/2018 00:00 to 23:10 24.56 24.82 24.71 24.73 24.77 24.82
9/15/2018 23:00 to 22:10 24.80 24.80 24.80 24.78 24.70 24.80
9/15/2018 22:00 to 21:10 24.88 24.71 24.75 24.66 24.68 24.73
9/15/2018 21:00 to 20:10 24.69 24.79 24.64 24.48 24.60 24.63
9/15/2018 20:00 to 19:10 24.65 24.57 24.61 24.72 24.65 24.71
9/15/2018 19:00 to 18:10 24.75 24.72 24.73 24.64 24.85 24.63
9/15/2018 18:00 to 17:10 24.53 24.76 24.69 24.73 24.71 24.84
9/15/2018 17:00 to 16:10 24.78 24.80 24.81 24.81 24.89 24.86
9/15/2018 16:00 to 15:10 24.75 24.56 24.71 24.60 24.60 24.59
9/15/2018 15:00 to 14:10 24.51 24.55 24.54 24.42 24.53 24.46
9/15/2018 14:00 to 13:10 24.48 24.36 24.22 23.42 24.43 24.59
9/15/2018 13:00 to 12:10 24.56 24.37 23.87 24.60 24.46 24.44
9/15/2018 12:00 to 11:10 24.46 24.43 24.42 24.41 24.45 24.39
9/15/2018 11:00 to 10:10 24.50 24.50 24.42 24.43 24.22 24.14
9/15/2018 10:00 to 9:10 24.34 24.48 24.53 24.59 24.42 24.61
9/15/2018 09:00 to 8:10 24.46 24.35 24.03 24.49 24.46 24.51
9/15/2018 08:00 to 7:10 24.63 24.55 24.35 24.22 23.93 24.64
9/15/2018 07:00 to 6:10 24.64 24.60 24.55 24.62 24.52 24.65
9/15/2018 06:00 to 5:10 24.45 24.62 24.53 24.54 24.50 24.58
9/15/2018 05:00 to 4:10 24.74 24.66 24.59 24.78 24.63 24.82
9/15/2018 04:00 to 3:10 24.81 24.84 24.66 24.65 24.70 24.76
9/15/2018 03:00 to 2:10 24.54 24.52 24.66 24.64 24.66 24.63
9/15/2018 02:00 to 1:10 24.53 24.42 24.77 24.75 24.77 24.80
9/15/2018 01:00 to 0:10 24.66 24.67 24.65 24.85 24.85 24.92
9/15/2018 00:00 to 23:10 24.81 24.68 24.81 24.80 24.68 24.69
9/14/2018 23:00 to 22:10 24.74 24.75 24.77 24.72 24.78 24.54
9/14/2018 22:00 to 21:10 24.81 24.80 24.88 24.78 24.74 24.88
9/14/2018 21:00 to 20:10 24.75 24.72 24.70 24.75 24.69 24.80
9/14/2018 20:00 to 19:10 24.76 24.75 24.61 24.67 24.57 24.77
9/14/2018 19:00 to 18:10 24.68 24.92 24.84 24.92 24.86 24.94
9/14/2018 18:00 to 17:10 24.99 24.81 24.97 24.77 24.74 24.69
9/14/2018 17:00 to 16:10 24.52 24.85 24.79 24.85 24.76 24.55
9/14/2018 16:00 to 15:10 24.59 24.75 24.52 24.75 24.60 24.56
9/14/2018 15:00 to 14:10 24.51 24.71 24.40 24.42 24.32 24.37
9/14/2018 14:00 to 13:10 24.32 23.89 24.41 24.30 24.34 24.28
9/14/2018 13:00 to 12:10 24.28 24.33 24.02 24.27 23.67 24.32
9/14/2018 12:00 to 11:10 24.39 24.38 24.27 24.13 23.71 24.46
9/14/2018 11:00 to 10:10 24.26 24.30 24.39 24.51 24.37 24.46
9/14/2018 10:00 to 9:10 24.28 24.45 24.36 24.48 24.62 24.59
9/14/2018 09:00 to 8:10 24.56 24.14 23.88 24.32 23.77 24.70
9/14/2018 08:00 to 7:10 24.71 24.84 24.64 24.48 24.15 24.71
9/14/2018 07:00 to 6:10 23.89 24.33 24.94 25.00 24.96 24.97
9/14/2018 06:00 to 5:10 24.98 24.84 24.44 25.14 25.14 25.08
9/14/2018 05:00 to 4:10 24.91 25.18 24.98 24.62 24.92 25.12
9/14/2018 04:00 to 3:10 25.18 25.36 25.17 25.34 25.18 25.20
9/14/2018 03:00 to 2:10 25.30 25.15 25.14 25.19 25.30 25.13
9/14/2018 02:00 to 1:10 25.05 25.13 25.26 24.95 24.96 25.24
9/14/2018 01:00 to 0:10 25.08 25.34 25.18 25.46 24.80 24.14
9/14/2018 00:00 to 23:10 25.21 25.43 25.28 25.32 24.92 25.12
9/13/2018 23:00 to 22:10 24.63 24.36 24.86 24.84 24.80 24.93
9/13/2018 22:00 to 21:10 24.92 24.83 24.53 24.99 25.02 25.20
9/13/2018 21:00 to 20:10 25.17 25.12 25.15 25.30 25.02 24.05
9/13/2018 20:00 to 19:10 25.22 25.43 25.02 25.26 25.11 24.91
9/13/2018 19:00 to 18:10 24.07 25.09 25.04 25.06 24.78 24.82
9/13/2018 18:00 to 17:10 25.12 24.82 25.40 25.73 25.52 25.45
9/13/2018 17:00 to 16:10 25.39 24.86 24.52 25.47 25.48 25.57
9/13/2018 16:00 to 15:10 25.52 25.50 25.47 25.28 25.05 25.14
9/13/2018 15:00 to 14:10 24.88 24.97 24.94 24.82 24.86 24.75
9/13/2018 14:00 to 13:10 24.70 24.38 24.49 24.39 24.30 24.36
9/13/2018 13:00 to 12:10 24.30 24.34 24.15 24.27 24.03 24.31
9/13/2018 12:00 to 11:10 24.12 24.18 23.60 23.83 23.64 23.59
9/13/2018 11:00 to 10:10 23.84 23.89 23.72 23.77 23.73 23.96
9/13/2018 10:00 to 9:10 24.49 24.65 24.82 24.53 23.46 24.25
9/13/2018 09:00 to 8:10 -- -- -- -- -- --
9/13/2018 08:00 to 7:10 25.13 25.31 24.88 24.69 24.20 24.50
9/13/2018 07:00 to 6:10 24.27 24.32 24.81 24.93 24.90 24.83
9/13/2018 06:00 to 5:10 24.88 24.68 24.92 24.85 24.89 24.78
9/13/2018 05:00 to 4:10 24.65 24.45 24.22 24.06 23.73 23.51
9/13/2018 04:00 to 3:10 23.66 24.69 24.82 24.79 24.80 25.01
9/13/2018 03:00 to 2:10 24.92 24.90 24.90 24.86 24.82 24.89
9/13/2018 02:00 to 1:10 24.75 24.96 24.92 24.97 25.06 24.94
9/13/2018 01:00 to 0:10 24.92 24.16 24.76 24.87 24.89 24.85
9/13/2018 00:00 to 23:10 24.88 24.25 24.62 24.65 24.31 24.70
9/12/2018 23:00 to 22:10 24.52 24.81 24.85 24.59 24.75 24.71
9/12/2018 22:00 to 21:10 24.72 24.79 24.80 24.79 24.78 24.86
9/12/2018 21:00 to 20:10 24.80 24.69 24.88 24.61 24.23 24.32
9/12/2018 20:00 to 19:10 24.75 24.66 24.67 24.76 24.56 24.82
9/12/2018 19:00 to 18:10 24.85 24.69 24.80 24.67 24.85 24.77
9/12/2018 18:00 to 17:10 24.53 24.01 24.52 24.03 24.97 24.73
9/12/2018 17:00 to 16:10 24.85 24.86 24.82 24.66 24.77 24.78
9/12/2018 16:00 to 15:10 24.37 24.25 24.40 24.39 24.56 24.40
9/12/2018 15:00 to 14:10 23.92 24.35 24.43 24.08 23.74 24.28
9/12/2018 14:00 to 13:10 24.02 24.22 24.15 23.92 23.51 24.18
9/12/2018 13:00 to 12:10 24.04 24.14 24.06 24.22 24.07 24.31
9/12/2018 12:00 to 11:10 24.27 24.11 24.06 23.93 24.22 24.32
9/12/2018 11:00 to 10:10 24.20 24.37 24.29 24.18 24.25 24.28
9/12/2018 10:00 to 9:10 24.35 24.22 24.38 24.30 24.43 24.31
9/12/2018 09:00 to 8:10 24.29 24.38 24.43 24.31 24.34 24.38
9/12/2018 08:00 to 7:10 24.45 24.41 24.41 24.45 24.48 24.40
9/12/2018 07:00 to 6:10 24.37 24.53 24.45 24.49 24.44 24.44
9/12/2018 06:00 to 5:10 24.42 24.45 24.40 24.34 24.39 24.44
9/12/2018 05:00 to 4:10 24.40 24.55 24.44 24.44 24.49 24.52
9/12/2018 04:00 to 3:10 24.53 24.51 24.45 24.52 24.34 24.37
9/12/2018 03:00 to 2:10 24.50 24.43 24.51 24.50 24.49 24.48
9/12/2018 02:00 to 1:10 24.56 24.37 24.43 24.56 24.66 24.64
9/12/2018 01:00 to 0:10 24.66 24.54 24.14 24.52 24.53 24.61